ABR277G EBLG-LSGG

Flight info

Callsign ABR277G
Flight time 0h 58m
Altitude 29000
Route LNO N852 SUTAL DCT GTQ DCT POGOL DCT LASAT DCT MOROK Z24 AKITO
Aircraft B738/M-SDE2E3FGHIRWXY/LB1

Departure

Time 2026-04-23 14:49
Airport Liège Airport (EBLG)

Arrival

Time 2026-04-23 15:48
Airport Geneva International Airport (LSGG)
Time Latitude Longitude Altitude Speed Heading
2026-04-23 14:36 50.63698 5.44871 615 ft 0 kts 135°
2026-04-23 14:39 50.63700 5.44867 642 ft 2 kts 135°
2026-04-23 14:39 50.63714 5.44847 631 ft 3 kts 139°
2026-04-23 14:40 50.63730 5.44827 627 ft 3 kts 148°
2026-04-23 14:40 50.63747 5.44813 621 ft 3 kts 168°
2026-04-23 14:40 50.63764 5.44812 624 ft 2 kts 213°
2026-04-23 14:40 50.63768 5.44817 626 ft 0 kts 225°
2026-04-23 14:44 50.63765 5.44812 624 ft 3 kts 225°
2026-04-23 14:44 50.63737 5.44767 615 ft 8 kts 225°
2026-04-23 14:44 50.63698 5.44706 620 ft 8 kts 225°
2026-04-23 14:44 50.63659 5.44645 623 ft 8 kts 225°
2026-04-23 14:45 50.63622 5.44585 615 ft 8 kts 225°
2026-04-23 14:45 50.63584 5.44526 622 ft 8 kts 225°
2026-04-23 14:45 50.63546 5.44464 622 ft 8 kts 225°
2026-04-23 14:45 50.63508 5.44406 626 ft 8 kts 224°
2026-04-23 14:46 50.63469 5.44344 625 ft 10 kts 225°
2026-04-23 14:46 50.63415 5.44260 631 ft 11 kts 225°
2026-04-23 14:46 50.63361 5.44174 642 ft 11 kts 225°
2026-04-23 14:46 50.63308 5.44091 638 ft 11 kts 225°
2026-04-23 14:47 50.63258 5.44011 638 ft 10 kts 225°
2026-04-23 14:47 50.63208 5.43931 639 ft 10 kts 226°
2026-04-23 14:47 50.63209 5.43838 642 ft 10 kts 320°
2026-04-23 14:47 50.63274 5.43844 640 ft 10 kts 12°
2026-04-23 14:48 50.63339 5.43819 641 ft 10 kts 342°
2026-04-23 14:48 50.63399 5.43867 639 ft 12 kts 48°
2026-04-23 14:48 50.63501 5.44031 632 ft 48 kts 45°
2026-04-23 14:48 50.63928 5.44707 619 ft 123 kts 45°
2026-04-23 14:49 50.64665 5.45865 821 ft 163 kts 45°
2026-04-23 14:49 50.65470 5.47161 1661 ft 168 kts 43°
2026-04-23 14:49 50.66301 5.48490 2564 ft 172 kts 43°
2026-04-23 14:49 50.67185 5.49828 3385 ft 185 kts 42°
2026-04-23 14:50 50.68146 5.51224 4219 ft 192 kts 41°
2026-04-23 14:50 50.69156 5.52616 5033 ft 192 kts 41°
2026-04-23 14:50 50.70236 5.53777 5974 ft 186 kts 22°
2026-04-23 14:50 50.71512 5.54122 6778 ft 192 kts 355°
2026-04-23 14:51 50.72797 5.53417 7350 ft 203 kts 328°
2026-04-23 14:51 50.73771 5.51758 7986 ft 212 kts 298°
2026-04-23 14:51 50.74075 5.49461 8633 ft 219 kts 267°
2026-04-23 14:51 50.73581 5.47194 9218 ft 225 kts 233°
2026-04-23 14:52 50.72361 5.45636 9658 ft 235 kts 201°
2026-04-23 14:52 50.70777 5.45265 10353 ft 231 kts 170°
2026-04-23 14:52 50.69286 5.46148 10893 ft 234 kts 141°
2026-04-23 14:52 50.68171 5.48052 11385 ft 238 kts 117°
2026-04-23 14:53 50.67295 5.50304 12036 ft 245 kts 121°
2026-04-23 14:53 50.66340 5.52563 12678 ft 251 kts 121°
2026-04-23 14:53 50.65360 5.54869 13338 ft 256 kts 121°
2026-04-23 14:53 50.64383 5.57179 13985 ft 262 kts 121°
2026-04-23 14:54 50.64165 5.57696 14130 ft 263 kts 121°
2026-04-23 14:54 50.63804 5.58557 14376 ft 260 kts 121°
2026-04-23 14:54 50.62882 5.60818 15553 ft 222 kts 119°
2026-04-23 14:55 50.62126 5.62690 16736 ft 196 kts 121°
2026-04-23 14:55 50.61264 5.64738 16065 ft 260 kts 121°
2026-04-23 14:55 50.60147 5.67374 15606 ft 311 kts 122°
2026-04-23 14:55 50.58726 5.70086 15815 ft 334 kts 136°
2026-04-23 14:56 50.56779 5.72209 15979 ft 359 kts 153°
2026-04-23 14:56 50.54412 5.73777 16178 ft 379 kts 158°
2026-04-23 14:56 50.51871 5.75234 16383 ft 397 kts 159°
2026-04-23 14:56 50.49227 5.76695 16775 ft 408 kts 159°
2026-04-23 14:57 50.46539 5.78189 17466 ft 410 kts 159°
2026-04-23 14:57 50.43850 5.79703 18121 ft 413 kts 159°
2026-04-23 14:57 50.41131 5.81260 18714 ft 417 kts 158°
2026-04-23 14:57 50.38411 5.82834 19355 ft 417 kts 158°
2026-04-23 14:58 50.35688 5.84417 19986 ft 418 kts 158°
2026-04-23 14:58 50.32995 5.85985 20560 ft 419 kts 158°
2026-04-23 14:58 50.30251 5.87581 21123 ft 422 kts 158°
2026-04-23 14:58 50.27494 5.89184 21668 ft 424 kts 158°
2026-04-23 14:59 50.24723 5.90793 22204 ft 426 kts 158°
2026-04-23 14:59 50.21937 5.92407 22747 ft 428 kts 158°
2026-04-23 14:59 50.19137 5.94027 23257 ft 430 kts 158°
2026-04-23 14:59 50.16320 5.95655 23729 ft 433 kts 158°
2026-04-23 15:00 50.13483 5.97293 24149 ft 436 kts 158°
2026-04-23 15:00 50.10676 5.98911 24584 ft 437 kts 158°
2026-04-23 15:00 50.07820 6.00554 25024 ft 438 kts 158°
2026-04-23 15:00 50.04960 6.02198 25450 ft 439 kts 158°
2026-04-23 15:01 50.02090 6.03846 25863 ft 440 kts 158°
2026-04-23 15:01 49.99213 6.05497 26251 ft 442 kts 158°
2026-04-23 15:01 49.96325 6.07151 26627 ft 443 kts 157°
2026-04-23 15:01 49.93424 6.08810 26998 ft 445 kts 157°
2026-04-23 15:02 49.91499 6.09911 27222 ft 446 kts 157°
2026-04-23 15:02 49.87597 6.12138 27769 ft 446 kts 157°
2026-04-23 15:02 49.84711 6.13852 28314 ft 442 kts 155°
2026-04-23 15:02 49.81934 6.15691 28894 ft 438 kts 154°
2026-04-23 15:03 49.79161 6.17612 29317 ft 437 kts 153°
2026-04-23 15:03 49.76371 6.19557 29312 ft 441 kts 153°
2026-04-23 15:03 49.70781 6.23397 29312 ft 437 kts 154°
2026-04-23 15:04 49.65222 6.27155 29324 ft 436 kts 154°
2026-04-23 15:04 49.59635 6.30843 29324 ft 437 kts 154°
2026-04-23 15:05 49.54046 6.34421 29324 ft 438 kts 154°
2026-04-23 15:05 49.48418 6.38037 29317 ft 439 kts 154°
2026-04-23 15:06 49.42806 6.41732 29323 ft 439 kts 153°
2026-04-23 15:06 49.37233 6.45555 29323 ft 439 kts 153°
2026-04-23 15:07 49.31692 6.49349 29328 ft 439 kts 153°
2026-04-23 15:07 49.26110 6.53140 29323 ft 439 kts 153°
2026-04-23 15:08 49.20525 6.56916 29323 ft 439 kts 153°
2026-04-23 15:09 49.12144 6.62565 29325 ft 439 kts 153°
2026-04-23 15:09 49.06587 6.66300 29318 ft 440 kts 153°
2026-04-23 15:10 49.01923 6.69403 29318 ft 440 kts 155°
2026-04-23 15:10 48.97961 6.71084 29320 ft 445 kts 166°
2026-04-23 15:10 48.94873 6.71600 29317 ft 449 kts 175°
2026-04-23 15:11 48.88604 6.71360 29315 ft 451 kts 178°
2026-04-23 15:11 48.82372 6.71019 29310 ft 451 kts 178°
2026-04-23 15:12 48.76098 6.70735 29305 ft 451 kts 178°
2026-04-23 15:12 48.69831 6.70488 29304 ft 450 kts 178°
2026-04-23 15:13 48.63570 6.70248 29300 ft 450 kts 178°
2026-04-23 15:13 48.57348 6.70009 29298 ft 450 kts 178°
2026-04-23 15:14 48.51088 6.69767 29293 ft 450 kts 178°
2026-04-23 15:14 48.44830 6.69526 29298 ft 450 kts 177°
2026-04-23 15:15 48.38572 6.69285 29284 ft 450 kts 177°
2026-04-23 15:15 48.32351 6.69046 29286 ft 450 kts 177°
2026-04-23 15:16 48.26092 6.68805 29289 ft 450 kts 177°
2026-04-23 15:16 48.19830 6.68565 29286 ft 450 kts 177°
2026-04-23 15:17 48.13571 6.68326 29269 ft 450 kts 177°
2026-04-23 15:17 48.07365 6.68090 29279 ft 449 kts 177°
2026-04-23 15:18 48.01116 6.67853 29268 ft 450 kts 177°
2026-04-23 15:18 47.94861 6.67622 29256 ft 449 kts 177°
2026-04-23 15:19 47.88621 6.67384 29267 ft 449 kts 177°
2026-04-23 15:19 47.82413 6.67148 29255 ft 449 kts 177°
2026-04-23 15:20 47.77173 6.66950 29253 ft 450 kts 177°
2026-04-23 15:20 47.69895 6.66677 29252 ft 451 kts 177°
2026-04-23 15:21 47.63623 6.66442 29268 ft 450 kts 177°
2026-04-23 15:21 47.57399 6.66210 29266 ft 451 kts 177°
2026-04-23 15:22 47.51133 6.65976 29272 ft 450 kts 177°
2026-04-23 15:22 47.44951 6.65743 28575 ft 438 kts 178°
2026-04-23 15:22 47.41895 6.65631 27850 ft 442 kts 178°
2026-04-23 15:23 47.38771 6.65521 27146 ft 455 kts 178°
2026-04-23 15:23 47.35580 6.65406 26449 ft 461 kts 178°
2026-04-23 15:23 47.32365 6.65285 25751 ft 461 kts 179°
2026-04-23 15:23 47.29213 6.65165 25088 ft 458 kts 179°
2026-04-23 15:24 47.26032 6.65046 24430 ft 456 kts 179°
2026-04-23 15:24 47.22884 6.64587 23742 ft 458 kts 192°
2026-04-23 15:24 47.19927 6.62859 22991 ft 459 kts 208°
2026-04-23 15:24 47.17408 6.60024 22274 ft 455 kts 220°
2026-04-23 15:25 47.15083 6.56916 21547 ft 450 kts 221°
2026-04-23 15:25 47.12794 6.53817 20830 ft 445 kts 221°
2026-04-23 15:25 47.10517 6.50756 20136 ft 443 kts 221°
2026-04-23 15:25 47.08248 6.47740 19457 ft 438 kts 220°
2026-04-23 15:26 47.06019 6.44804 18798 ft 434 kts 220°
2026-04-23 15:26 47.03774 6.41870 18081 ft 430 kts 220°
2026-04-23 15:26 47.01549 6.38973 17339 ft 426 kts 220°
2026-04-23 15:26 46.99340 6.36099 16617 ft 423 kts 220°
2026-04-23 15:27 46.97147 6.33249 15919 ft 420 kts 220°
2026-04-23 15:27 46.94972 6.30422 15234 ft 417 kts 220°
2026-04-23 15:27 46.92809 6.27615 14551 ft 414 kts 220°
2026-04-23 15:27 46.90662 6.24831 13864 ft 411 kts 220°
2026-04-23 15:28 46.88530 6.22060 13138 ft 408 kts 220°
2026-04-23 15:28 46.86464 6.19368 12412 ft 396 kts 220°
2026-04-23 15:28 46.84440 6.16729 11712 ft 384 kts 220°
2026-04-23 15:28 46.82473 6.14166 11017 ft 375 kts 220°
2026-04-23 15:29 46.80542 6.11656 10345 ft 369 kts 220°
2026-04-23 15:29 46.78631 6.09175 9633 ft 369 kts 220°
2026-04-23 15:29 46.76712 6.06687 8920 ft 369 kts 220°
2026-04-23 15:29 46.74831 6.04247 8518 ft 352 kts 220°
2026-04-23 15:30 46.73057 6.01949 8354 ft 330 kts 220°
2026-04-23 15:30 46.71399 5.99801 8234 ft 308 kts 220°
2026-04-23 15:30 46.69870 5.97823 8214 ft 290 kts 220°
2026-04-23 15:30 46.68363 5.95881 8237 ft 291 kts 219°
2026-04-23 15:31 46.66839 5.93917 8240 ft 293 kts 220°
2026-04-23 15:31 46.65319 5.91963 8227 ft 290 kts 220°
2026-04-23 15:31 46.63813 5.90031 8238 ft 287 kts 219°
2026-04-23 15:31 46.62308 5.88117 8226 ft 287 kts 219°
2026-04-23 15:32 46.60814 5.86207 8154 ft 287 kts 220°
2026-04-23 15:32 46.59295 5.84316 8042 ft 288 kts 212°
2026-04-23 15:32 46.57468 5.83329 7991 ft 278 kts 179°
2026-04-23 15:32 46.55612 5.83778 7997 ft 276 kts 161°
2026-04-23 15:33 46.53820 5.84759 8002 ft 275 kts 150°
2026-04-23 15:33 46.52209 5.86266 7996 ft 277 kts 143°
2026-04-23 15:33 46.50621 5.87893 7985 ft 280 kts 143°
2026-04-23 15:33 46.49041 5.89508 7992 ft 276 kts 143°
2026-04-23 15:34 46.47480 5.91090 7981 ft 272 kts 143°
2026-04-23 15:34 46.45918 5.92665 7999 ft 275 kts 143°
2026-04-23 15:34 46.44336 5.94260 7964 ft 278 kts 143°
2026-04-23 15:34 46.42759 5.95840 7991 ft 274 kts 143°
2026-04-23 15:35 46.41208 5.97391 8023 ft 276 kts 143°
2026-04-23 15:35 46.39628 5.98973 8029 ft 276 kts 143°
2026-04-23 15:35 46.38046 6.00553 8032 ft 275 kts 143°
2026-04-23 15:35 46.36455 6.02126 8001 ft 277 kts 147°
2026-04-23 15:36 46.34638 6.03033 7983 ft 281 kts 174°
2026-04-23 15:36 46.32706 6.02628 7997 ft 286 kts 201°
2026-04-23 15:36 46.31037 6.01027 7996 ft 292 kts 222°
2026-04-23 15:36 46.29602 5.98937 8009 ft 294 kts 225°
2026-04-23 15:37 46.28190 5.96800 7995 ft 294 kts 225°
2026-04-23 15:37 46.26769 5.94678 8011 ft 294 kts 225°
2026-04-23 15:37 46.25816 5.93277 7996 ft 295 kts 224°
2026-04-23 15:37 46.23919 5.90498 7938 ft 293 kts 224°
2026-04-23 15:38 46.22504 5.88436 7979 ft 285 kts 224°
2026-04-23 15:38 46.21127 5.86434 7991 ft 275 kts 225°
2026-04-23 15:38 46.19806 5.84513 7978 ft 265 kts 224°
2026-04-23 15:38 46.18527 5.82660 7989 ft 258 kts 224°
2026-04-23 15:39 46.17259 5.80818 7993 ft 258 kts 224°
2026-04-23 15:39 46.15991 5.78987 7993 ft 258 kts 224°
2026-04-23 15:39 46.14728 5.77157 7985 ft 256 kts 224°
2026-04-23 15:39 46.13491 5.75362 7974 ft 255 kts 224°
2026-04-23 15:40 46.12245 5.73558 7996 ft 253 kts 224°
2026-04-23 15:40 46.11000 5.71756 7979 ft 255 kts 224°
2026-04-23 15:40 46.09746 5.69959 7991 ft 254 kts 224°
2026-04-23 15:40 46.08321 5.68504 7752 ft 252 kts 197°
2026-04-23 15:41 46.06625 5.68317 7649 ft 243 kts 165°
2026-04-23 15:41 46.05124 5.69332 7423 ft 238 kts 137°
2026-04-23 15:41 46.04119 5.71184 7253 ft 235 kts 113°
2026-04-23 15:41 46.03578 5.73387 7093 ft 235 kts 104°
2026-04-23 15:42 46.03158 5.75631 6993 ft 235 kts 103°
2026-04-23 15:42 46.02755 5.77886 6967 ft 231 kts 98°
2026-04-23 15:42 46.02903 5.80108 6973 ft 223 kts 62°
2026-04-23 15:42 46.03835 5.81886 7003 ft 227 kts 46°
2026-04-23 15:43 46.04961 5.83524 6939 ft 233 kts 45°
2026-04-23 15:43 46.06179 5.85281 6172 ft 260 kts 46°
2026-04-23 15:43 46.07449 5.87175 5641 ft 262 kts 45°
2026-04-23 15:43 46.08690 5.89052 5280 ft 256 kts 44°
2026-04-23 15:44 46.09893 5.90899 4938 ft 250 kts 43°
2026-04-23 15:44 46.11047 5.92681 4645 ft 245 kts 44°
2026-04-23 15:44 46.12233 5.94433 4286 ft 242 kts 49°
2026-04-23 15:44 46.13412 5.96090 3992 ft 234 kts 41°
2026-04-23 15:45 46.14603 5.97617 3882 ft 225 kts 39°
2026-04-23 15:45 46.15718 5.99131 3873 ft 218 kts 46°
2026-04-23 15:45 46.16716 6.00721 3646 ft 210 kts 47°
2026-04-23 15:45 46.17687 6.02209 3382 ft 197 kts 44°
2026-04-23 15:46 46.18668 6.03531 3030 ft 193 kts 40°
2026-04-23 15:46 46.19632 6.04832 2709 ft 186 kts 46°
2026-04-23 15:46 46.20468 6.06142 2424 ft 173 kts 43°
2026-04-23 15:46 46.21329 6.07299 2065 ft 164 kts 45°
2026-04-23 15:47 46.22106 6.08414 1724 ft 153 kts 44°
2026-04-23 15:47 46.22832 6.09467 1441 ft 142 kts 47°
2026-04-23 15:47 46.23465 6.10401 1386 ft 115 kts 45°
2026-04-23 15:47 46.23859 6.10975 1380 ft 55 kts 45°
2026-04-23 15:48 46.24096 6.11321 1376 ft 33 kts 46°
2026-04-23 15:48 46.24227 6.11518 1372 ft 23 kts 50°
2026-04-23 15:48 46.24308 6.11713 1370 ft 22 kts 69°
2026-04-23 15:48 46.24340 6.11871 1365 ft 11 kts 81°
2026-04-23 15:49 46.24296 6.11935 1362 ft 11 kts 191°
2026-04-23 15:49 46.24237 6.11860 1361 ft 11 kts 226°
2026-04-23 15:49 46.24182 6.11780 1363 ft 11 kts 225°
2026-04-23 15:49 46.24130 6.11702 1365 ft 11 kts 226°
2026-04-23 15:50 46.24077 6.11626 1368 ft 11 kts 225°
2026-04-23 15:50 46.24023 6.11547 1370 ft 11 kts 225°
2026-04-23 15:50 46.23971 6.11471 1372 ft 11 kts 225°
2026-04-23 15:50 46.23921 6.11396 1373 ft 10 kts 225°
2026-04-23 15:51 46.23871 6.11323 1376 ft 10 kts 225°
2026-04-23 15:51 46.23819 6.11247 1377 ft 11 kts 225°
2026-04-23 15:51 46.23761 6.11163 1380 ft 12 kts 225°
2026-04-23 15:51 46.23705 6.11079 1385 ft 12 kts 226°
2026-04-23 15:52 46.23649 6.10998 1389 ft 11 kts 225°
2026-04-23 15:52 46.23595 6.10918 1387 ft 11 kts 225°
2026-04-23 15:52 46.23536 6.10832 1390 ft 13 kts 225°
2026-04-23 15:52 46.23477 6.10746 1390 ft 11 kts 225°
2026-04-23 15:53 46.23431 6.10702 1390 ft 8 kts 176°
2026-04-23 15:53 46.23388 6.10747 1392 ft 8 kts 136°
2026-04-23 15:53 46.23348 6.10799 1400 ft 8 kts 149°
2026-04-23 15:53 46.23295 6.10792 1397 ft 8 kts 194°
2026-04-23 15:54 46.23240 6.10766 1401 ft 8 kts 212°
2026-04-23 15:54 46.23198 6.10705 1403 ft 7 kts 226°
2026-04-23 15:54 46.23174 6.10670 1395 ft 2 kts 226°
2026-04-23 15:54 46.23158 6.10667 1394 ft 3 kts 163°
2026-04-23 15:55 46.23142 6.10685 1392 ft 3 kts 137°
2026-04-23 15:55 46.23135 6.10695 1395 ft 1 kts 136°
2026-04-23 15:55 46.23132 6.10699 1395 ft 0 kts 136°